ITY7875 LFPO-EKYT

Flight info

Callsign ITY7875
Flight time N/A
Altitude 36000
Route NURMO2E/07 NURMO DCT CMB DCT ADUTO N873 SPY/N0436F370 N873 MIKRO DCT ETVOK
Aircraft A320/M-SDE3FGHIRWY/LB1

Departure

Time N/A
Airport Paris-Orly Airport (LFPO)

Arrival

Time 2026-05-01 08:21
Airport Aalborg Airport (EKYT)
Time Latitude Longitude Altitude Speed Heading
2026-05-01 07:23 52.77260 5.34034 36360 ft 443 kts 52°
2026-05-01 07:24 52.82913 5.46009 36362 ft 442 kts 52°
2026-05-01 07:24 52.86686 5.54055 36363 ft 442 kts 52°
2026-05-01 07:25 52.90449 5.62096 36368 ft 442 kts 52°
2026-05-01 07:25 52.94203 5.70143 36384 ft 441 kts 52°
2026-05-01 07:26 52.97917 5.78124 36390 ft 440 kts 52°
2026-05-01 07:26 53.01649 5.86176 36386 ft 440 kts 52°
2026-05-01 07:27 53.05371 5.94232 36381 ft 439 kts 52°
2026-05-01 07:27 53.09087 6.02299 36376 ft 439 kts 52°
2026-05-01 07:28 53.12769 6.10310 36376 ft 439 kts 52°
2026-05-01 07:28 53.16474 6.18401 36384 ft 438 kts 52°
2026-05-01 07:29 53.20158 6.26485 36388 ft 438 kts 52°
2026-05-01 07:29 53.23835 6.34575 36389 ft 437 kts 52°
2026-05-01 07:30 53.27506 6.42671 36388 ft 437 kts 52°
2026-05-01 07:30 53.31142 6.50723 36388 ft 437 kts 53°
2026-05-01 07:31 53.34861 6.58764 36394 ft 436 kts 46°
2026-05-01 07:32 53.45944 6.75992 36400 ft 434 kts 41°
2026-05-01 07:33 53.52553 6.86219 36408 ft 432 kts 42°
2026-05-01 07:33 53.59212 6.96391 36406 ft 431 kts 39°
2026-05-01 07:34 53.66093 7.06003 36401 ft 430 kts 38°
2026-05-01 07:35 53.70686 7.12441 36399 ft 430 kts 39°
2026-05-01 07:35 53.75250 7.18960 36396 ft 429 kts 39°
2026-05-01 07:36 53.79790 7.25530 36399 ft 429 kts 39°
2026-05-01 07:36 53.84300 7.32068 36399 ft 429 kts 37°
2026-05-01 07:37 53.92214 7.38861 36408 ft 427 kts 20°
2026-05-01 07:37 53.97893 7.41721 36406 ft 426 kts 10°
2026-05-01 07:38 54.03724 7.43537 36410 ft 426 kts 10°
2026-05-01 07:39 54.12442 7.46303 36411 ft 427 kts 10°
2026-05-01 07:39 54.21206 7.49106 36413 ft 427 kts 10°
2026-05-01 07:40 54.27052 7.50971 36417 ft 427 kts 10°
2026-05-01 07:40 54.32906 7.52844 36418 ft 428 kts 10°
2026-05-01 07:41 54.38721 7.54705 36421 ft 428 kts 10°
2026-05-01 07:42 54.47506 7.57524 36424 ft 428 kts 10°
2026-05-01 07:42 54.53370 7.59408 36426 ft 428 kts 10°
2026-05-01 07:43 54.59225 7.61304 36426 ft 428 kts 11°
2026-05-01 07:43 54.67974 7.64164 36431 ft 429 kts 11°
2026-05-01 07:44 54.79698 7.67978 36425 ft 428 kts 11°
2026-05-01 07:45 54.85555 7.69885 36422 ft 428 kts 11°
2026-05-01 07:45 54.91370 7.71793 36421 ft 428 kts 11°
2026-05-01 07:46 54.97229 7.73724 36421 ft 428 kts 12°
2026-05-01 07:46 55.02776 7.77390 36417 ft 428 kts 29°
2026-05-01 07:47 55.05352 7.79978 36415 ft 428 kts 29°
2026-05-01 07:47 55.10512 7.85168 36412 ft 428 kts 30°
2026-05-01 07:48 55.18215 7.92939 36409 ft 428 kts 30°
2026-05-01 07:48 55.23383 7.98167 36414 ft 428 kts 30°
2026-05-01 07:49 55.31125 8.06027 36415 ft 429 kts 30°
2026-05-01 07:50 55.36248 8.11400 36418 ft 429 kts 32°
2026-05-01 07:50 55.43741 8.19924 36419 ft 429 kts 33°
2026-05-01 07:51 55.48756 8.25654 36420 ft 429 kts 32°
2026-05-01 07:52 55.56217 8.34092 36425 ft 421 kts 32°
2026-05-01 07:52 55.61141 8.39662 36426 ft 420 kts 32°
2026-05-01 07:53 55.68460 8.48022 36199 ft 418 kts 32°
2026-05-01 07:53 55.70896 8.50809 35538 ft 418 kts 32°
2026-05-01 07:53 55.73349 8.53620 34876 ft 419 kts 32°
2026-05-01 07:54 55.78206 8.59198 33819 ft 413 kts 32°
2026-05-01 07:55 55.85369 8.67449 32246 ft 405 kts 33°
2026-05-01 07:55 55.90036 8.72864 31247 ft 400 kts 33°
2026-05-01 07:56 55.96971 8.80915 29727 ft 394 kts 33°
2026-05-01 07:56 56.01542 8.86234 28672 ft 391 kts 33°
2026-05-01 07:57 56.03810 8.88881 28185 ft 388 kts 33°
2026-05-01 07:57 56.08310 8.94144 27244 ft 384 kts 33°
2026-05-01 07:58 56.12741 8.99350 26287 ft 382 kts 33°
2026-05-01 07:58 56.17174 9.04558 25352 ft 379 kts 33°
2026-05-01 07:59 56.21586 9.09764 24441 ft 376 kts 33°
2026-05-01 07:59 56.25906 9.14879 23469 ft 372 kts 33°
2026-05-01 08:00 56.34504 9.25103 21450 ft 368 kts 33°
2026-05-01 08:01 56.40898 9.32720 20034 ft 366 kts 33°
2026-05-01 08:01 56.43016 9.35250 19577 ft 365 kts 33°
2026-05-01 08:01 56.45134 9.37785 19129 ft 364 kts 33°
2026-05-01 08:02 56.49355 9.42862 18182 ft 363 kts 33°
2026-05-01 08:02 56.51456 9.45393 17678 ft 363 kts 33°
2026-05-01 08:03 56.55649 9.50463 16696 ft 363 kts 33°
2026-05-01 08:03 56.57751 9.53009 16205 ft 363 kts 33°
2026-05-01 08:03 56.61943 9.58080 15276 ft 362 kts 33°
2026-05-01 08:04 56.66133 9.63155 14373 ft 361 kts 34°
2026-05-01 08:04 56.70300 9.68237 13474 ft 357 kts 34°
2026-05-01 08:05 56.74312 9.73133 12899 ft 344 kts 33°
2026-05-01 08:05 56.76274 9.75534 12421 ft 344 kts 33°
2026-05-01 08:05 56.78262 9.77968 11952 ft 344 kts 34°
2026-05-01 08:06 56.82224 9.82842 11015 ft 343 kts 34°
2026-05-01 08:07 56.86907 9.96553 9244 ft 332 kts 74°
2026-05-01 08:07 56.88287 10.04542 8350 ft 327 kts 73°
2026-05-01 08:08 56.88966 10.08495 7923 ft 324 kts 73°
2026-05-01 08:08 56.90294 10.16245 7386 ft 308 kts 73°
2026-05-01 08:09 56.91497 10.23274 7301 ft 278 kts 73°
2026-05-01 08:09 56.92063 10.26589 7178 ft 267 kts 73°
2026-05-01 08:09 56.92607 10.29774 7010 ft 258 kts 73°
2026-05-01 08:10 56.93664 10.35982 6410 ft 254 kts 73°
2026-05-01 08:10 56.94708 10.42127 5767 ft 252 kts 73°
2026-05-01 08:11 56.95747 10.48253 5105 ft 251 kts 73°
2026-05-01 08:11 56.96849 10.54277 4475 ft 247 kts 59°
2026-05-01 08:12 56.99631 10.57146 4399 ft 238 kts 353°
2026-05-01 08:12 57.01175 10.56261 4407 ft 233 kts 327°
2026-05-01 08:12 57.03856 10.52970 4375 ft 230 kts 322°
2026-05-01 08:13 57.05162 10.51284 4063 ft 229 kts 322°
2026-05-01 08:13 57.06462 10.49603 3995 ft 229 kts 322°
2026-05-01 08:13 57.08321 10.45124 3414 ft 221 kts 294°
2026-05-01 08:14 57.08961 10.42625 3271 ft 211 kts 292°
2026-05-01 08:14 57.09558 10.40258 3152 ft 202 kts 292°
2026-05-01 08:14 57.10130 10.37980 3083 ft 190 kts 292°
2026-05-01 08:14 57.10671 10.35828 2989 ft 181 kts 292°
2026-05-01 08:15 57.11196 10.33740 2991 ft 179 kts 292°
2026-05-01 08:15 57.12149 10.29528 3004 ft 177 kts 277°
2026-05-01 08:15 57.12118 10.27277 3007 ft 177 kts 263°
2026-05-01 08:16 57.11979 10.25041 3010 ft 176 kts 263°
2026-05-01 08:16 57.11842 10.22806 3012 ft 176 kts 263°
2026-05-01 08:16 57.11704 10.20570 2995 ft 175 kts 263°
2026-05-01 08:16 57.11567 10.18339 3011 ft 176 kts 263°
2026-05-01 08:17 57.11430 10.16098 2985 ft 177 kts 263°
2026-05-01 08:17 57.11292 10.13859 2831 ft 175 kts 263°
2026-05-01 08:17 57.11155 10.11648 2617 ft 173 kts 264°
2026-05-01 08:17 57.11019 10.09447 2399 ft 172 kts 263°
2026-05-01 08:18 57.10885 10.07285 2180 ft 169 kts 263°
2026-05-01 08:18 57.10621 10.03069 1713 ft 160 kts 264°
2026-05-01 08:19 57.10392 9.99402 1321 ft 135 kts 263°
2026-05-01 08:19 57.10285 9.97709 1136 ft 131 kts 263°
2026-05-01 08:19 57.10181 9.96051 964 ft 130 kts 263°
2026-05-01 08:19 57.10083 9.94397 764 ft 132 kts 262°
2026-05-01 08:20 57.09972 9.92721 590 ft 130 kts 261°
2026-05-01 08:20 57.09859 9.91073 417 ft 129 kts 262°
2026-05-01 08:20 57.09765 9.89416 238 ft 130 kts 261°
2026-05-01 08:20 57.09659 9.87782 81 ft 129 kts 261°
2026-05-01 08:21 57.09565 9.86275 19 ft 73 kts 264°
2026-05-01 08:21 57.09549 9.86034 19 ft 0 kts 260°